Sparta, WI

7:54 AM CST on December 09, 2019 (GMT -0600)
Sparta-Fort McCoy

Weather History for KCMY - November, 2019

Change the Weather History Date:

Tuesday, November 19, 2019

  Actual Average Record
Temperature  
Mean Temperature 32 °F -  
Max Temperature 35 °F 42 °F 64 °F (1953)
Min Temperature 30 °F 25 °F 0 °F (1951)
Degree Days  
Heating Degree Days 32    
Moisture  
Dew Point 32 °F    
Average Humidity 97    
Maximum Humidity 100    
Minimum Humidity 93    
Precipitation  
Precipitation 0.04 in - - ()
Sea Level Pressure  
Sea Level Pressure 29.84 in    
Wind  
Wind Speed 0 mph (SE)    
Max Wind Speed 4 mph    
Max Gust Speed -    
Visibility 4 miles    
Events Fog , Rain , Snow    
Averages and records for this station are not official NWS values.
T = Trace of Precipitation, MM = Missing Value Source: NWS Daily Summary

Daily Weather History Graph

Daily Weather History Graph

Search for Another Location

Airport or City:

Astronomy

Nov. 19, 2019 Rise Set
Actual Time 7:02 AM CST 4:33 PM CST
Civil Twilight 6:31 AM CST 5:04 PM CST
Nautical Twilight 5:56 AM CST 5:40 PM CST
Astronomical Twilight 5:21 AM CST 6:14 PM CST
Moon 11:31 PM CST (11/19) 1:12 PM CST (11/19)
Length of Visible Light 10h 33m
Length of Day
9h 30m
Waning Gibbous, 51% of the Moon is Illuminated
Nov 19
Waning Gibbous
Nov 19
Last Quarter
Nov 26
New
Dec 4
First Quarter
Dec 11
Full

Hourly Weather History & Observations

Time (CST) Temp. Windchill Dew Point Humidity Pressure Visibility Wind Dir Wind Speed Gust Speed Precip Events Conditions
12:15 AM 30.6 °F - 29.1 °F 94% 29.73 in 10.0 mi Calm Calm - N/A   Overcast
12:35 AM 30.4 °F - 29.1 °F 95% 29.74 in 10.0 mi Calm Calm - N/A   Overcast
12:55 AM 30.2 °F - 29.1 °F 96% 29.74 in 10.0 mi Calm Calm - N/A   Overcast
1:15 AM 30.7 °F - 29.3 °F 94% 29.73 in 10.0 mi Calm Calm - N/A   Overcast
1:35 AM 30.7 °F - 29.3 °F 94% 29.72 in 10.0 mi Calm Calm - N/A   Overcast
1:55 AM 30.9 °F - 29.3 °F 94% 29.73 in 10.0 mi Calm Calm - N/A   Overcast
2:15 AM 31.1 °F - 29.3 °F 93% 29.73 in 10.0 mi Calm Calm - N/A   Overcast
2:35 AM 31.1 °F - 29.5 °F 94% 29.73 in 10.0 mi Calm Calm - N/A   Overcast
2:55 AM 31.1 °F - 29.5 °F 94% 29.73 in 10.0 mi Calm Calm - N/A   Overcast
3:35 AM 31.3 °F - 29.5 °F 93% 29.73 in 10.0 mi Calm Calm - N/A   Overcast
4:15 AM 31.1 °F 27.7 °F 29.7 °F 94% 29.72 in 10.0 mi East 3.5 mph - N/A   Overcast
4:35 AM 31.1 °F - 29.7 °F 94% 29.72 in 10.0 mi Calm Calm - N/A Snow Light Snow
4:55 AM 31.1 °F - 29.8 °F 95% 29.73 in 5.0 mi Calm Calm - N/A Snow Light Snow
5:15 AM 30.9 °F - 29.8 °F 96% 29.73 in 3.0 mi Calm Calm - N/A Snow Light Snow
5:55 AM 30.6 °F - 30.2 °F 99% 29.74 in 2.5 mi Calm Calm - N/A Snow Light Snow
6:15 AM 30.6 °F - 30.2 °F 99% 29.74 in 2.5 mi Calm Calm - N/A Snow Light Snow
6:35 AM 30.2 °F - 30.0 °F 99% 29.75 in 2.5 mi Calm Calm - N/A Snow Light Snow
6:55 AM 30.2 °F - 30.2 °F 100% 29.75 in 2.5 mi Calm Calm - N/A Snow Light Snow
7:15 AM 30.2 °F - 30.2 °F 100% 29.76 in 2.5 mi Calm Calm - N/A Snow Light Snow
7:35 AM 30.2 °F - 30.2 °F 100% 29.77 in 1.5 mi Calm Calm - N/A Snow Light Snow
7:55 AM 30.6 °F - 30.6 °F 100% 29.77 in 1.5 mi Calm Calm - N/A   Mostly Cloudy
8:15 AM 30.6 °F - 30.6 °F 100% 29.77 in 1.8 mi Calm Calm - N/A   Unknown
8:35 AM 30.7 °F - 30.6 °F 99% 29.77 in 2.0 mi Calm Calm - N/A Snow Light Snow
8:55 AM 30.9 °F - 30.7 °F 99% 29.78 in 1.8 mi Calm Calm - N/A Snow Light Snow
9:15 AM 31.1 °F - 31.1 °F 100% 29.78 in 3.0 mi Calm Calm - N/A   Overcast
9:55 AM 31.6 °F - 31.1 °F 98% 29.80 in 4.0 mi Calm Calm - N/A   Light Freezing Rain
10:15 AM 32.0 °F - 31.6 °F 99% 29.80 in 3.0 mi Calm Calm - 0.02 in   Overcast
10:35 AM 32.7 °F - 32.0 °F 97% 29.81 in 5.0 mi Calm Calm - 0.04 in   Overcast
10:55 AM 32.7 °F - 32.0 °F 97% 29.81 in 5.0 mi Calm Calm - 0.04 in   Overcast
11:15 AM 33.1 °F - 32.2 °F 96% 29.81 in 5.0 mi Calm Calm - N/A   Overcast
11:35 AM 33.4 °F - 32.0 °F 94% 29.81 in 7.0 mi Calm Calm - N/A   Overcast
11:55 AM 33.8 °F - 32.4 °F 94% 29.81 in 5.0 mi Calm Calm - N/A   Overcast
12:15 PM 34.2 °F - 32.9 °F 95% 29.81 in 7.0 mi Calm Calm - N/A   Overcast
12:35 PM 34.3 °F - 32.9 °F 94% 29.82 in 7.0 mi Calm Calm - N/A   Overcast
12:55 PM 34.3 °F - 32.9 °F 94% 29.82 in 7.0 mi Calm Calm - N/A   Overcast
1:15 PM 34.7 °F - 33.3 °F 94% 29.82 in 7.0 mi Calm Calm - N/A   Overcast
1:35 PM 34.7 °F 31.8 °F 33.1 °F 94% 29.83 in 7.0 mi South 3.5 mph - N/A   Overcast
1:55 PM 34.7 °F - 33.4 °F 95% 29.84 in 5.0 mi Calm Calm - N/A   Overcast
2:15 PM 34.7 °F - 33.4 °F 95% 29.85 in 5.0 mi Calm Calm - N/A   Overcast
2:35 PM 35.1 °F - 33.8 °F 95% 29.85 in 5.0 mi Calm Calm - N/A   Overcast
2:55 PM 35.1 °F - 34.0 °F 96% 29.86 in 4.0 mi Calm Calm - N/A   Overcast
3:15 PM 35.1 °F - 34.2 °F 97% 29.87 in 5.0 mi Calm Calm - N/A   Overcast
3:35 PM 35.1 °F - 34.2 °F 97% 29.88 in 5.0 mi Calm Calm - N/A   Overcast
3:55 PM 35.1 °F - 34.2 °F 97% 29.88 in 4.0 mi Calm Calm - N/A Rain Light Rain
4:15 PM 35.1 °F - 34.3 °F 97% 29.89 in 4.0 mi Calm Calm - N/A Rain Light Rain
4:55 PM 34.7 °F - 34.3 °F 99% 29.90 in 4.0 mi Calm Calm - N/A Rain Light Rain
5:15 PM 34.7 °F - 34.3 °F 99% 29.90 in 2.5 mi Calm Calm - N/A   Drizzle
5:35 PM 34.3 °F - 34.3 °F 100% 29.91 in 3.0 mi Calm Calm - N/A   Overcast
5:55 PM 34.2 °F - 34.2 °F 100% 29.91 in 3.0 mi Calm Calm - N/A   Light Drizzle
6:15 PM 34.2 °F - 34.2 °F 100% 29.91 in 3.0 mi Calm Calm - N/A   Overcast
6:35 PM 34.0 °F - 34.0 °F 100% 29.92 in 3.0 mi Calm Calm - N/A   Overcast
6:55 PM 34.2 °F - 34.2 °F 100% 29.92 in 2.0 mi Calm Calm - N/A   Overcast
7:15 PM 34.0 °F - 34.0 °F 100% 29.93 in 1.0 mi Calm Calm - N/A   Overcast
7:35 PM 34.0 °F - 34.0 °F 100% 29.93 in 0.5 mi Calm Calm - N/A Fog Fog
7:55 PM 34.0 °F - 34.0 °F 100% 29.93 in 0.5 mi Calm Calm - N/A Fog Fog
8:15 PM 34.0 °F - 34.0 °F 100% 29.94 in 0.5 mi Calm Calm - N/A Fog Fog
8:35 PM 34.0 °F - 34.0 °F 100% 29.95 in 0.5 mi Calm Calm - N/A Fog Fog
8:55 PM 34.0 °F - 34.0 °F 100% 29.96 in 0.2 mi Calm Calm - N/A Fog Fog
9:15 PM 34.0 °F - 34.0 °F 100% 29.96 in 0.2 mi Calm Calm - N/A Fog Fog
9:35 PM 34.0 °F - 34.0 °F 100% 29.97 in 0.2 mi Calm Calm - N/A Fog Fog
9:55 PM 34.0 °F - 34.0 °F 100% 29.98 in 0.2 mi Calm Calm - N/A Fog Fog
10:15 PM 34.0 °F - 34.0 °F 100% 29.98 in 0.2 mi Calm Calm - N/A Fog Fog
10:55 PM 34.2 °F - 34.2 °F 100% 29.99 in 0.5 mi Calm Calm - N/A Fog Fog
11:15 PM 34.0 °F - 34.0 °F 100% 30.00 in 0.5 mi Calm Calm - N/A Fog Fog
11:35 PM 34.2 °F - 34.2 °F 100% 30.01 in 1.0 mi Calm Calm - N/A   Overcast
11:55 PM 34.3 °F - 34.3 °F 100% 30.02 in 0.8 mi Calm Calm - N/A   Overcast